Regional Weather Roundup
Issued by NWS

Home | Current Version | Previous Version | Graphics & Text | Print | Product List | Glossary On
Versions: 1 2 3 4 5 6 7 8 9 10 11 12 13 14 15 16 17 18 19 20 21 22 23 24 25 26 27 28 29 30 31 32 33 34 35 36 37 38 39 40 41 42 43 44 45 46 47 48 49 50
000
ASUS43 KLOT 072121
RWRIL

ILLINOIS REGIONAL WEATHER ROUNDUP
NATIONAL WEATHER SERVICE CHICAGO/ROMEOVILLE IL
400 PM CDT TUE JUL 07 2015

NOTE: "FAIR" INDICATES FEW OR NO CLOUDS BELOW 12,000 FEET WITH NO
SIGNIFICANT WEATHER AND/OR OBSTRUCTIONS TO VISIBILITY.

* THESE STATIONS ARE NOT UNDER NWS QUALITY CONTROL. THEY ALSO MAY NOT
  REPORT WEATHER SUCH AS PRECIPITATION OR FOG.

ILZ001-002-007-009-015-016-024-072200-
NORTHWEST ILLINOIS

CITY           SKY/WX    TMP DP  RH WIND       PRES   REMARKS
MOLINE         PTSUNNY   71  55  56 N12       30.05R HAZE
STERLING*      CLOUDY    73  55  53 N7        30.05S
SAVANNA*       PTSUNNY   72  51  47 N8        30.05S
$$

ILZ003-004-008-010-011-017-018-072200-
NORTH CENTRAL ILLINOIS

CITY           SKY/WX    TMP DP  RH WIND       PRES   REMARKS
ROCKFORD       PTSUNNY   72  52  49 N8        30.06R
FREEPORT*      PTSUNNY   69  54  59 N7        30.07S
ROCHELLE*      PTSUNNY   70  55  59 N7        30.05S
DE KALB*       PTSUNNY   67  53  60 N9        30.05S
PERU*          CLOUDY    71  55  58 NE12      30.04R
$$

ILZ005-006-012>014-019>023-072200-
NORTHEAST ILLINOIS

CITY           SKY/WX    TMP DP  RH WIND       PRES   REMARKS
CHICAGO-OHARE  MOSUNNY   66  47  50 NE17      30.05R
CHICAGO-MIDWAY MOSUNNY   67  46  47 NE18G25   30.04S
AURORA         CLOUDY    70  53  54 N9        30.04R
LANSING*       SUNNY     65  44  47 NE15G26   30.04S
JOLIET*        SUNNY     71  53  53 NE9       30.03R
WAUKEGAN       SUNNY     62  46  55 N15G22    30.06R
DUPAGE AIRPORT CLOUDY    68  50  52 E14       30.04R
KANKAKEE*      MOSUNNY   67  51  57 NE16G25   30.04S
WHEELING       SUNNY     64  46  52 NE13      30.07R
MORRIS*        CLOUDY    70  53  55 E6        30.01S
ROMEOVILLE*    SUNNY     68  49  50 NE13      30.04R
NORTHERLY ISL    N/A     62  49  62 N14         N/A
$$

LMZ740>746-072200-
SOUTHERN LAKE MICHIGAN

STATION/POSITION SKY/WX   TEMP    WIND        PRES    VSBY  WAVE
                          AIR SEA DIR/SP/G                  HT/PER
                          (F)     (DEG/KT/KT) (MB)    (MI)  (FT/S)
HARRISON CRIB              58      20/ 19/ 22   N/A
BURNHAM HARBOR             62      10/ 13/ 15   N/A
CALUMET HARBOR             62     360/ 13/ 16   N/A
BURNS HARBOR               60      20/ 19/ 22 1017.6R
MICHIGAN CITY              61     350/ 24/ 27   N/A
MICHIGAN CITY 6N           61 65   30/ 19/ 25   N/A           7/ 6
ST. JOSEPH                 60 63   40/ 21/ 25   N/A           8/ 2
$$

ILZ025>027-034>036-040-047-049-050-058-095>099-072200-
WEST-CENTRAL ILLINOIS

CITY           SKY/WX    TMP DP  RH WIND       PRES   REMARKS
QUINCY         PTSUNNY   73  61  65 NE14      30.03S HAZE
GALESBURG*     CLOUDY    71  58  65 N9        30.04S
MACOMB*        PTSUNNY   71  60  67 NE7       30.05S HAZE
JACKSONVILLE*  CLOUDY    70  64  81 N9        30.03S
PITTSFIELD*    CLOUDY    68  62  80 NE7       30.05R
$$

ILZ028>032-037-038-041>044-048-051>054-059>061-072200-
CENTRAL ILLINOIS

CITY           SKY/WX    TMP DP  RH WIND       PRES   REMARKS
PONTIAC        CLOUDY    71  59  64 NE7       30.04R
BLOOMINGTON    CLOUDY    71  59  66 NE14      30.04R
DECATUR        CLOUDY    70  59  68 N15       30.02S
PEORIA         PTSUNNY   74  59  59 NE9       30.03S HAZE
LACON*         MOSUNNY   72  58  60 N6        30.02S HAZE
LINCOLN*       CLOUDY    72  60  67 N10       30.03S
SPRINGFIELD    CLOUDY    72  61  68 NE10      30.03S
TAYLORVILLE    CLOUDY    64  61  88 NE8       30.02S
$$

ILZ033-039-045-046-055>057-062-063-072200-
EAST-CENTRAL ILLINOIS

CITY           SKY/WX    TMP DP  RH WIND       PRES   REMARKS
CHAMPAIGN      CLOUDY    69  57  65 N12       30.02R
DANVILLE*      RAIN      67  56  68 N12       29.99R
RANTOUL*       CLOUDY    71  56  60 NE15G23   30.02R
MATTOON        CLOUDY    63  60  90 N16       30.01R
PARIS*         LGT RAIN  64  63  95 N7        30.01S
$$

ILZ079-100>102-072200-
SOUTHWEST ILLINOIS

CITY           SKY/WX    TMP DP  RH WIND       PRES   REMARKS
ALTON          CLOUDY    68 N/A N/A N9        30.01R
BELLEVILLE     CLOUDY    71  70  99 N8        29.98R
CAHOKIA*       LGT RAIN  70  67  90 N8        30.00R FOG
SPARTA*        CLOUDY    74  72  92 N8        29.98R
$$

ILZ064>066-069>071-074>076-080>082-084>086-088>090-092>094-072200-
SOUTH-CENTRAL ILLINOIS

CITY           SKY/WX    TMP DP  RH WIND       PRES   REMARKS
CARBONDALE     LGT RAIN  77  74  90 S9        29.97S
CAIRO*         TSTM      73  72  96 W9G22     30.00F
EFFINGHAM*     LGT RAIN  65  62  89 NW10      30.02R
MARION         CLOUDY    77  75  94 SW9       29.98S
MT. VERNON     CLOUDY    75  70  83 NW3       29.97S
CENTRALIA*     CLOUDY    73  68  83 N10       29.98S
SALEM*         CLOUDY    74  69  82 N9        29.98R
$$

ILZ067-068-072-073-078-083-087-091-072200-
SOUTHEAST ILLINOIS

CITY           SKY/WX    TMP DP  RH WIND       PRES   REMARKS
LAWRENCEVILLE  HVY RAIN  76  75  97 S7        29.96R VSB 3/4
FLORA*         CLOUDY    76  71  84 NW9       29.97R
FAIRFIELD*     RAIN      76  75  96 S3        29.95S
HARRISBURG*    CLOUDY    79  76  91 SW7       29.98S HX  83
ROBINSON*      CLOUDY    70  68  94 N9        29.98R
CARMI*         DRIZZLE   77  72  83 SE3       29.96F
$$

ABBREVIATIONS USED IN REMARKS
   TC - TEMPERATURE IN CELSIUS
  WCI - WIND CHILL INDEX
   HX - HEAT INDEX
  VSB - VISIBILITY
$$



USA.gov is the U.S. government's official web portal to all federal, state and local government web resources and services.